Weather History for KSBY - June, 2013

Change the Weather History Date:

Monday, June 24, 2013

  Actual Average Record
Temperature  
Mean Temperature 83 °F 74 °F  
Max Temperature 92 °F 85 °F 100 °F (1914)
Min Temperature 74 °F 64 °F 46 °F (1947)
Degree Days  
Heating Degree Days 0 0  
Month to date heating degree days 0 18  
Since 1 June heating degree days 0 18  
Since 1 July heating degree days 3862 4440  
Cooling Degree Days 18 10  
Month to date cooling degree days 232 165  
Year to date cooling degree days 423 249  
Since 1 June cooling degree days 232 165  
Growing Degree Days 32 (Base 50)    
Moisture  
Dew Point 72 °F    
Average Humidity 70    
Maximum Humidity 87    
Minimum Humidity 52    
Precipitation  
Precipitation 0.00 in 0.12 in 1.64 in (1964)
Month to date precipitation 6.86 3.00  
Year to date precipitation 25.51 21.55  
Snow  
Snow 0.00 in 0.00 in 0.00 in (2002)
Month to date snowfall 0.0 0.0  
Since 1 July snowfall 2.8 9.3  
Snow Depth 0.00 in    
Sea Level Pressure  
Sea Level Pressure 30.10 in    
Wind  
Wind Speed 7 mph (SW)    
Max Wind Speed 15 mph    
Max Gust Speed 20 mph    
Visibility 10 miles    
Events      
T = Trace of Precipitation, MM = Missing Value Source: NWS Daily Summary

Daily Weather History Graph

Daily Weather History Graph

Search for Another Location

Airport or City:

Trip Planner

Search our weather history database for the weather conditions in past years. The results will help you decide how hot, cold, wet, or windy it might be!

Date:

Astronomy

Jun. 24, 2013 Rise Set
Actual Time 5:39 AM EDT 8:29 PM EDT
Civil Twilight 5:07 AM EDT 9:01 PM EDT
Nautical Twilight 4:27 AM EDT 9:41 PM EDT
Astronomical Twilight 3:42 AM EDT 10:26 PM EDT
Moon 9:31 PM EDT (6/24) 7:02 AM EDT (6/24)
Length of Visible Light 15h 53m
Length of Day
14h 50m
Full, 98% of the Moon is Illuminated
Jun 24
Full
Jun 30
Last Quarter
Jul 8
New
Jul 15
First Quarter
Jul 22
Full

Hourly Weather History & Observations

Time (EDT) Temp. Heat Index Dew Point Humidity Pressure Visibility Wind Dir Wind Speed Gust Speed Precip Events Conditions
12:54 AM 73.9 °F - 70.0 °F 87% 30.15 in 10.0 mi Calm Calm - N/A   Clear
1:54 AM 75.0 °F - 71.1 °F 87% 30.14 in 10.0 mi South 4.6 mph - N/A   Clear
2:54 AM 75.0 °F - 71.1 °F 87% 30.13 in 10.0 mi SSW 5.8 mph - N/A   Clear
3:54 AM 75.9 °F - 72.0 °F 87% 30.14 in 10.0 mi SSW 5.8 mph - N/A   Clear
4:54 AM 75.9 °F - 72.0 °F 87% 30.14 in 10.0 mi SSW 6.9 mph - N/A   Clear
5:54 AM 75.9 °F - 72.0 °F 87% 30.14 in 10.0 mi SSW 6.9 mph - N/A   Clear
6:54 AM 75.9 °F - 72.0 °F 87% 30.14 in 10.0 mi SSW 5.8 mph - N/A   Clear
7:39 AM 78.8 °F - 73.4 °F 83% 30.14 in 10.0 mi SW 9.2 mph - N/A   Partly Cloudy
7:54 AM 79.0 °F - 73.0 °F 82% 30.14 in 10.0 mi SW 6.9 mph - N/A   Partly Cloudy
8:54 AM 82.0 °F 86.7 °F 72.0 °F 71% 30.15 in 10.0 mi WSW 10.4 mph - N/A   Clear
9:54 AM 84.9 °F 90.7 °F 72.0 °F 65% 30.14 in 10.0 mi SW 10.4 mph - N/A   Partly Cloudy
10:54 AM 86.0 °F 93.0 °F 73.0 °F 65% 30.14 in 10.0 mi SW 8.1 mph - N/A   Clear
11:54 AM 88.0 °F 95.6 °F 73.0 °F 61% 30.14 in 10.0 mi WSW 11.5 mph 16.1 mph N/A   Clear
12:54 PM 89.1 °F 98.0 °F 73.9 °F 61% 30.13 in 10.0 mi SSW 8.1 mph - N/A   Partly Cloudy
1:54 PM 90.0 °F 97.9 °F 73.0 °F 57% 30.11 in 10.0 mi SW 9.2 mph 16.1 mph N/A   Clear
2:54 PM 91.0 °F 97.6 °F 71.1 °F 52% 30.07 in 10.0 mi West 10.4 mph - N/A   Clear
3:54 PM 91.9 °F 100.7 °F 73.0 °F 54% 30.06 in 10.0 mi SW 8.1 mph - N/A   Partly Cloudy
4:54 PM 90.0 °F 97.9 °F 73.0 °F 57% 30.05 in 10.0 mi SSW 12.7 mph - N/A   Mostly Cloudy
5:54 PM 88.0 °F 93.8 °F 71.1 °F 57% 30.05 in 10.0 mi SW 9.2 mph - N/A   Partly Cloudy
6:54 PM 86.0 °F 92.2 °F 72.0 °F 63% 30.04 in 10.0 mi SSW 6.9 mph - N/A   Clear
7:54 PM 84.0 °F 89.6 °F 72.0 °F 67% 30.04 in 10.0 mi SSW 10.4 mph - N/A   Partly Cloudy
8:54 PM 81.0 °F 85.2 °F 72.0 °F 74% 30.04 in 10.0 mi West 4.6 mph - N/A   Clear
9:54 PM 79.0 °F - 71.1 °F 77% 30.06 in 10.0 mi Calm Calm - N/A   Clear
10:54 PM 77.0 °F - 71.1 °F 82% 30.06 in 10.0 mi Calm Calm - N/A   Clear
11:54 PM 73.9 °F - 70.0 °F 87% 30.07 in 9.0 mi Calm Calm - N/A   Clear